Hourly Weather Tibissa

Today, 19 September, Saturday

Time Temperature Precipitation Wind Pressure Humidity
00:00 +26°C° 0 mm 2 mps 689 mmHg 52%
01:00 +25°C° 0 mm 1 mps 688 mmHg 57%
02:00 +25°C° 0 mm 1 mps 688 mmHg 57%
03:00 +24°C° 0 mm 1 mps 688 mmHg 58%
04:00 +24°C° 0 mm 1 mps 687 mmHg 58%
05:00 +24°C° 0 mm 1 mps 688 mmHg 58%
06:00 +24°C° 0 mm 1 mps 688 mmHg 57%
07:00 +25°C° 0 mm 1 mps 688 mmHg 56%
08:00 +26°C° 0 mm 1 mps 689 mmHg 49%
09:00 +28°C° 0 mm 1 mps 689 mmHg 42%
10:00 +30°C° 0 mm 2 mps 690 mmHg 34%
11:00 +31°C° 0 mm 2 mps 689 mmHg 32%
12:00 +31°C° 0 mm 2 mps 689 mmHg 30%
13:00 +32°C° 0 mm 2 mps 689 mmHg 27%
14:00 +34°C° 0 mm 2 mps 689 mmHg 26%
15:00 +34°C° 0 mm 2 mps 689 mmHg 25%
16:00 +34°C° 0 mm 2 mps 688 mmHg 24%
17:00 +33°C° 0 mm 3 mps 688 mmHg 26%
18:00 +31°C° 0 mm 3 mps 688 mmHg 28%
19:00 +30°C° 0 mm 3 mps 688 mmHg 30%
20:00 +29°C° 0 mm 3 mps 688 mmHg 36%
21:00 +28°C° 0 mm 4 mps 689 mmHg 42%
22:00 +27°C° 0 mm 4 mps 689 mmHg 48%
23:00 +26°C° 0 mm 3 mps 688 mmHg 51%

Tomorrow, 20 September, Sunday

Time Temperature Precipitation Wind Pressure Humidity
00:00 +26°C° 0 mm 2 mps 688 mmHg 54%
01:00 +25°C° 0 mm 1 mps 688 mmHg 56%
02:00 +25°C° 0 mm 1 mps 687 mmHg 55%
03:00 +25°C° 0 mm 1 mps 687 mmHg 53%
04:00 +25°C° 0 mm 2 mps 687 mmHg 51%
05:00 +25°C° 0 mm 1 mps 687 mmHg 52%
06:00 +25°C° 0 mm 1 mps 688 mmHg 52%
07:00 +25°C° 0 mm 1 mps 688 mmHg 53%
08:00 +26°C° 0 mm 1 mps 688 mmHg 49%
09:00 +27°C° 0 mm 2 mps 688 mmHg 46%
10:00 +28°C° 0 mm 2 mps 689 mmHg 42%
11:00 +29°C° 0 mm 3 mps 689 mmHg 37%
12:00 +32°C° 0 mm 4 mps 689 mmHg 32%
13:00 +33°C° 0 mm 5 mps 689 mmHg 26%
14:00 +33°C° 0.1 mm 5 mps 688 mmHg 28%
15:00 +32°C° 0.1 mm 5 mps 688 mmHg 29%
16:00 +30°C° 0.1 mm 5 mps 688 mmHg 31%
17:00 +29°C° 0.7 mm 5 mps 687 mmHg 39%
18:00 +27°C° 0.7 mm 4 mps 687 mmHg 47%
19:00 +25°C° 0.7 mm 4 mps 687 mmHg 56%
20:00 +25°C° 0 mm 3 mps 687 mmHg 57%
21:00 +25°C° 0 mm 3 mps 688 mmHg 57%
22:00 +25°C° 0 mm 3 mps 688 mmHg 58%
23:00 +25°C° 0 mm 2 mps 688 mmHg 61%

Day after tomorrow, 21 September, Monday

Time Temperature Precipitation Wind Pressure Humidity
00:00 +24°C° 0 mm 2 mps 687 mmHg 63%
01:00 +24°C° 0 mm 2 mps 687 mmHg 65%
02:00 +24°C° 0 mm 2 mps 687 mmHg 64%
03:00 +23°C° 0 mm 2 mps 687 mmHg 62%
04:00 +23°C° 0 mm 2 mps 686 mmHg 61%
05:00 +23°C° 0 mm 2 mps 687 mmHg 58%
06:00 +24°C° 0 mm 3 mps 687 mmHg 56%
07:00 +24°C° 0 mm 3 mps 687 mmHg 53%
08:00 +25°C° 0 mm 4 mps 687 mmHg 47%
09:00 +27°C° 0 mm 4 mps 688 mmHg 41%
10:00 +28°C° 0 mm 5 mps 688 mmHg 35%
11:00 +29°C° 0 mm 6 mps 688 mmHg 33%
12:00 +30°C° 0 mm 7 mps 688 mmHg 31%
13:00 +32°C° 0 mm 8 mps 688 mmHg 29%
14:00 +32°C° 0 mm 8 mps 688 mmHg 29%
15:00 +32°C° 0 mm 7 mps 688 mmHg 29%
16:00 +32°C° 0 mm 7 mps 687 mmHg 28%
17:00 +29°C° 0 mm 6 mps 687 mmHg 33%
18:00 +28°C° 0 mm 6 mps 687 mmHg 38%
19:00 +26°C° 0 mm 5 mps 686 mmHg 43%
20:00 +26°C° 0.1 mm 4 mps 687 mmHg 46%
21:00 +25°C° 0.1 mm 3 mps 687 mmHg 49%
22:00 +25°C° 0.1 mm 2 mps 687 mmHg 52%
23:00 +24°C° 0.2 mm 2 mps 687 mmHg 54%

22 September, Tuesday

Time Temperature Precipitation Wind Pressure Humidity
00:00 +24°C° 0.2 mm 1 mps 686 mmHg 57%
01:00 +23°C° 0.2 mm 1 mps 686 mmHg 59%
02:00 +23°C° 0.3 mm 1 mps 686 mmHg 60%
03:00 +23°C° 0.3 mm 1 mps 686 mmHg 61%
04:00 +22°C° 0.3 mm 1 mps 685 mmHg 61%
05:00 +23°C° 0.2 mm 1 mps 685 mmHg 60%
06:00 +23°C° 0.2 mm 1 mps 686 mmHg 58%
07:00 +23°C° 0.2 mm 1 mps 686 mmHg 57%
08:00 +25°C° 0.1 mm 2 mps 686 mmHg 50%
09:00 +26°C° 0.1 mm 4 mps 686 mmHg 44%
10:00 +28°C° 0.1 mm 5 mps 687 mmHg 37%
11:00 +29°C° 0 mm 6 mps 687 mmHg 35%
12:00 +29°C° 0 mm 7 mps 687 mmHg 32%
13:00 +31°C° 0 mm 9 mps 687 mmHg 30%
14:00 +31°C° 0 mm 9 mps 686 mmHg 32%
15:00 +29°C° 0 mm 10 mps 686 mmHg 34%
16:00 +28°C° 0 mm 11 mps 686 mmHg 36%
17:00 +28°C° 0 mm 10 mps 686 mmHg 38%
18:00 +27°C° 0 mm 8 mps 686 mmHg 40%
19:00 +26°C° 0 mm 7 mps 686 mmHg 43%
20:00 +26°C° 0 mm 8 mps 686 mmHg 43%
21:00 +26°C° 0 mm 9 mps 686 mmHg 43%
22:00 +26°C° 0 mm 10 mps 687 mmHg 44%
23:00 +24°C° 0 mm 9 mps 686 mmHg 44%

23 September, Wednesday

Time Temperature Precipitation Wind Pressure Humidity
00:00 +24°C° 0 mm 8 mps 686 mmHg 45%
01:00 +23°C° 0 mm 8 mps 686 mmHg 46%
02:00 +22°C° 0.2 mm 8 mps 685 mmHg 50%
03:00 +22°C° 0.2 mm 8 mps 685 mmHg 55%
04:00 +21°C° 0.2 mm 8 mps 685 mmHg 59%
05:00 +20°C° 0.5 mm 8 mps 685 mmHg 60%
06:00 +20°C° 0.5 mm 8 mps 685 mmHg 61%
07:00 +19°C° 0.5 mm 9 mps 685 mmHg 62%
08:00 +20°C° 1.3 mm 8 mps 685 mmHg 64%
09:00 +18°C° 1.3 mm 7 mps 686 mmHg 65%
10:00 +19°C° 1.3 mm 6 mps 686 mmHg 67%
11:00 +21°C° 0.1 mm 8 mps 686 mmHg 61%
12:00 +22°C° 0.1 mm 10 mps 686 mmHg 55%
13:00 +24°C° 0.1 mm 12 mps 686 mmHg 49%
14:00 +24°C° 0 mm 11 mps 686 mmHg 46%
15:00 +24°C° 0 mm 9 mps 686 mmHg 44%
16:00 +24°C° 0 mm 8 mps 685 mmHg 42%
17:00 +24°C° 0 mm 6 mps 685 mmHg 44%
18:00 +23°C° 0 mm 4 mps 685 mmHg 45%
19:00 +24°C° 0 mm 3 mps 685 mmHg 46%
20:00 +24°C° 0 mm 2 mps 685 mmHg 47%
21:00 +23°C° 0 mm 2 mps 685 mmHg 49%
22:00 +23°C° 0 mm 2 mps 686 mmHg 50%
23:00 +23°C° 0 mm 1 mps 685 mmHg 51%

24 September, Thursday

Time Temperature Precipitation Wind Pressure Humidity
00:00 +22°C° 0 mm 1 mps 685 mmHg 53%
01:00 +20°C° 0 mm 0 mps 685 mmHg 54%
02:00 +22°C° 0 mm 1 mps 684 mmHg 54%
03:00 +21°C° 0 mm 1 mps 684 mmHg 53%
04:00 +21°C° 0 mm 1 mps 684 mmHg 53%
05:00 +22°C° 0 mm 1 mps 684 mmHg 53%
06:00 +22°C° 0 mm 1 mps 685 mmHg 53%
07:00 +22°C° 0 mm 1 mps 685 mmHg 54%
08:00 +24°C° 0 mm 2 mps 685 mmHg 48%
09:00 +25°C° 0 mm 3 mps 685 mmHg 43%
10:00 +27°C° 0 mm 4 mps 686 mmHg 38%
11:00 +28°C° 0 mm 4 mps 686 mmHg 34%
12:00 +29°C° 0 mm 5 mps 686 mmHg 31%
13:00 +30°C° 0 mm 5 mps 685 mmHg 28%
14:00 +30°C° 0 mm 5 mps 685 mmHg 27%
15:00 +30°C° 0 mm 6 mps 685 mmHg 27%
16:00 +30°C° 0 mm 6 mps 684 mmHg 26%
17:00 +29°C° 0 mm 6 mps 684 mmHg 29%
18:00 +28°C° 0 mm 6 mps 683 mmHg 33%
19:00 +27°C° 0 mm 7 mps 683 mmHg 37%
20:00 +27°C° 0 mm 6 mps 683 mmHg 38%
21:00 +26°C° 0 mm 5 mps 683 mmHg 39%
22:00 +26°C° 0 mm 3 mps 683 mmHg 40%
23:00 +25°C° 0 mm 3 mps 683 mmHg 43%
Show more